KN6CRX-10 Weather Reports


Display with metric or nautical units.
time (UTC)temp
F
wind
direction
speed
MPH
gust
MPH
rain 1hr
in
rain 24hr
in
rain mn
in
humidity
%
barometer
mb
20260906232838 78 193 1.0 1.0 0.00 0.00 0.00 33 1014.6
20260906232338 79 172 1.0 1.0 0.00 0.00 0.00 32 1014.6
20260906231832 79 172 2.0 2.0 0.00 0.00 0.00 31 1014.6
20260906231328 80 181 1.0 1.0 0.00 0.00 0.00 31 1014.5
20260906230827 80 207 3.0 3.0 0.00 0.00 0.00 29 1014.5
20260906230323 80 207 4.0 6.0 0.00 0.00 0.00 28 1014.6
20260906225820 80 205 3.0 3.0 0.00 0.00 0.00 29 1014.8
20260906225316 80 196 2.0 3.0 0.00 0.00 0.00 29 1014.7
20260906224812 80 201 2.0 6.0 0.00 0.00 0.00 28 1014.7
20260906224308 80 220 4.0 6.0 0.00 0.00 0.00 27 1014.9
20260906223804 80 215 5.0 7.0 0.00 0.00 0.00 28 1014.8
20260906223300 80 213 4.0 6.0 0.00 0.00 0.00 27 1014.9
20260906222758 80 204 3.0 3.0 0.00 0.00 0.00 28 1014.9
20260906222257 81 194 5.0 8.0 0.00 0.00 0.00 27 1015.1
20260906221755 82 203 1.0 1.0 0.00 0.00 0.00 28 1014.8
20260906221249 82 214 4.0 6.0 0.00 0.00 0.00 27 1015.1
20260906220745 83 201 4.0 4.0 0.00 0.00 0.00 27 1015.3
20260906220240 82 244 5.0 7.0 0.00 0.00 0.00 26 1015.3
20260906215739 82 196 2.0 3.0 0.00 0.00 0.00 26 1015.2
20260906215238 82 254 1.0 2.0 0.00 0.00 0.00 27 1015.3
20260906214737 83 216 4.0 7.0 0.00 0.00 0.00 25 1015.3
20260906214227 83 232 3.0 3.0 0.00 0.00 0.00 25 1015.4
20260906213726 83 191 2.0 2.0 0.00 0.00 0.00 25 1015.2
20260906213226 82 209 1.0 1.0 0.00 0.00 0.00 25 1015.4
20260906212722 80 200 3.0 3.0 0.00 0.00 0.00 26 1015.4
20260906212219 81 212 1.0 2.0 0.00 0.00 0.00 26 1015.5
20260906211713 81 250 2.0 2.0 0.00 0.00 0.00 25 1015.5
20260906211208 80 229 3.0 3.0 0.00 0.00 0.00 25 1015.6
20260906210703 80 185 3.0 4.0 0.00 0.00 0.00 26 1015.7
20260906210203 80 190 5.0 7.0 0.00 0.00 0.00 25 1015.9
20260906205658 81 218 4.0 6.0 0.00 0.00 0.00 25 1015.9
20260906205155 81 189 3.0 3.0 0.00 0.00 0.00 25 1016.0
20260906204654 81 194 2.0 2.0 0.00 0.00 0.00 26 1015.7
20260906204154 81 184 3.0 3.0 0.00 0.00 0.00 26 1016.1
20260906203654 81 213 4.0 6.0 0.00 0.00 0.00 25 1016.2
20260906203149 81 220 5.0 6.0 0.00 0.00 0.00 25 1016.2
20260906202646 81 216 3.0 4.0 0.00 0.00 0.00 24 1016.3
20260906202145 81 153 2.0 2.0 0.00 0.00 0.00 24 1016.1
20260906201641 81 180 2.0 2.0 0.00 0.00 0.00 24 1016.2
20260906201139 81 206 4.0 4.0 0.00 0.00 0.00 23 1016.2
20260906200636 82 237 4.0 7.0 0.00 0.00 0.00 22 1016.2
20260906200132 82 210 4.0 6.0 0.00 0.00 0.00 23 1016.2
20260906195627 81 188 1.0 1.0 0.00 0.00 0.00 24 1016.6
20260906195123 82 182 2.0 3.0 0.00 0.00 0.00 22 1016.4
20260906194619 82 199 4.0 4.0 0.00 0.00 0.00 22 1016.4
20260906194115 82 248 5.0 7.0 0.00 0.00 0.00 22 1016.2
20260906193615 82 174 3.0 3.0 0.00 0.00 0.00 20 1016.6
20260906193110 82 162 2.0 2.0 0.00 0.00 0.00 21 1016.6
20260906192606 82 148 4.0 4.0 0.00 0.00 0.00 20 1016.6
20260906192104 81 215 4.0 6.0 0.00 0.00 0.00 22 1016.6
20260906191600 81 229 5.0 9.0 0.00 0.00 0.00 23 1016.7
20260906191059 81 217 4.0 6.0 0.00 0.00 0.00 20 1016.6
20260906190558 80 240 5.0 7.0 0.00 0.00 0.00 21 1016.8
20260906190053 80 194 6.0 9.0 0.00 0.00 0.00 21 1016.8
20260906185552 80 208 4.0 6.0 0.00 0.00 0.00 22 1016.8
20260906185051 80 188 5.0 7.0 0.00 0.00 0.00 21 1017.0
20260906184546 80 196 3.0 3.0 0.00 0.00 0.00 21 1016.8
20260906184042 80 152 3.0 3.0 0.00 0.00 0.00 22 1017.0
20260906183538 80 195 6.0 7.0 0.00 0.00 0.00 20 1017.2
20260906183034 81 203 2.0 3.0 0.00 0.00 0.00 21 1017.1
20260906182529 81 145 2.0 2.0 0.00 0.00 0.00 23 1017.0
20260906182024 80 155 3.0 3.0 0.00 0.00 0.00 22 1017.4
20260906181520 81 222 2.0 3.0 0.00 0.00 0.00 22 1017.5
20260906181016 81 170 2.0 3.0 0.00 0.00 0.00 21 1017.6
20260906180510 80 253 5.0 6.0 0.00 0.00 0.00 21 1017.6
20260906180009 80 201 4.0 6.0 0.00 0.00 0.00 23 1017.6
20260906175508 80 126 1.0 2.0 0.00 0.00 0.00 23 1017.8
20260906175003 81 207 4.0 6.0 0.00 0.00 0.00 23 1018.0
20260906174501 81 173 4.0 4.0 0.00 0.00 0.00 23 1018.0
20260906173956 81 186 2.0 2.0 0.00 0.00 0.00 26 1018.3
20260906173452 81 136 2.0 3.0 0.00 0.00 0.00 27 1018.2
20260906172951 81 163 2.0 2.0 0.00 0.00 0.00 25 1018.3
20260906172447 80 106 1.0 1.0 0.00 0.00 0.00 26 1018.2
20260906171943 79 141 3.0 3.0 0.00 0.00 0.00 25 1018.2
20260906171443 80 143 1.0 1.0 0.00 0.00 0.00 25 1018.4
20260906170939 79 143 4.0 4.0 0.00 0.00 0.00 25 1018.2
20260906170435 79 122 1.0 1.0 0.00 0.00 0.00 26 1018.5
20260906165932 78 122 2.0 2.0 0.00 0.00 0.00 26 1018.4
20260906165430 78 184 3.0 3.0 0.00 0.00 0.00 25 1018.4
20260906164926 77 147 2.0 3.0 0.00 0.00 0.00 26 1018.5
20260906164424 76 145 2.0 2.0 0.00 0.00 0.00 26 1018.6
20260906163921 75 104 1.0 2.0 0.00 0.00 0.00 27 1018.5
20260906163417 75 101 2.0 2.0 0.00 0.00 0.00 28 1018.5
20260906162915 75 137 2.0 4.0 0.00 0.00 0.00 28 1018.5
20260906162413 74 123 2.0 2.0 0.00 0.00 0.00 29 1018.6
20260906161909 74 153 6.0 9.0 0.00 0.00 0.00 27 1018.6
20260906161408 74 128 6.0 8.0 0.00 0.00 0.00 28 1018.4
20260906160906 74 137 1.0 1.0 0.00 0.00 0.00 31 1018.6
20260906160401 74 165 1.0 1.0 0.00 0.00 0.00 29 1018.7
20260906155859 74 158 2.0 2.0 0.00 0.00 0.00 29 1018.5
20260906155359 73 161 1.0 1.0 0.00 0.00 0.00 29 1018.6
20260906154856 73 141 1.0 1.0 0.00 0.00 0.00 31 1018.7
20260906154355 72 148 2.0 2.0 0.00 0.00 0.00 30 1018.7
20260906153854 71 207 1.0 1.0 0.00 0.00 0.00 30 1018.6
20260906153353 69 207 1.0 1.0 0.00 0.00 0.00 35 1018.6
20260906152848 68 208 0.0 0.0 0.00 0.00 0.00 35 1018.6
20260906152349 67 208 0.0 0.0 0.00 0.00 0.00 37 1018.9
20260906151848 66 209 1.0 1.0 0.00 0.00 0.00 37 1018.6
20260906151344 65 209 0.0 0.0 0.00 0.00 0.00 41 1019.0
20260906150839 64 209 1.0 1.0 0.00 0.00 0.00 37 1018.5
20260906150335 64 209 0.0 0.0 0.00 0.00 0.00 42 1018.7
20260906145834 63 209 0.0 0.0 0.00 0.00 0.00 40 1018.7
20260906145333 62 209 0.0 0.0 0.00 0.00 0.00 42 1018.6
20260906144828 62 209 0.0 0.0 0.00 0.00 0.00 46 1018.9
20260906144323 61 209 1.0 1.0 0.00 0.00 0.00 46 1018.6
20260906143822 60 209 1.0 0.0 0.00 0.00 0.00 47 1018.4
20260906143319 59 209 0.0 0.0 0.00 0.00 0.00 49 1018.4
20260906142814 58 209 0.0 0.0 0.00 0.00 0.00 51 1018.6
20260906142309 57 209 0.0 0.0 0.00 0.00 0.00 51 1018.6
20260906141809 57 209 0.0 0.0 0.00 0.00 0.00 52 1018.3
20260906141303 56 209 0.0 0.0 0.00 0.00 0.00 54 1018.5
20260906140802 55 209 0.0 0.0 0.00 0.00 0.00 56 1018.2
20260906140257 54 209 0.0 0.0 0.00 0.00 0.00 57 1018.4
20260906135755 53 209 0.0 0.0 0.00 0.00 0.00 56 1017.9
20260906135250 52 209 0.0 0.0 0.00 0.00 0.00 58 1018.0
20260906134746 52 209 0.0 0.0 0.00 0.00 0.00 57 1018.3
20260906134240 51 209 0.0 0.0 0.00 0.00 0.00 59 1018.2
20260906133736 51 209 0.0 0.0 0.00 0.00 0.00 62 1018.2
20260906133231 51 209 0.0 0.0 0.00 0.00 0.00 63 1018.4
20260906132727 50 209 0.0 0.0 0.00 0.00 0.00 62 1018.0
20260906132222 50 209 0.0 0.0 0.00 0.00 0.00 61 1018.0
20260906131718 50 209 0.0 0.0 0.00 0.00 0.00 62 1017.9
20260906131212 50 209 0.0 0.0 0.00 0.00 0.00 63 1018.0
20260906130708 50 209 0.0 0.0 0.00 0.00 0.00 62 1017.9
20260906130203 50 209 0.0 0.0 0.00 0.00 0.00 62 1017.9
20260906125701 50 209 0.0 0.0 0.00 0.00 0.00 63 1017.8
20260906125200 50 209 0.0 0.0 0.00 0.00 0.00 62 1017.9
20260906124655 50 209 0.0 0.0 0.00 0.00 0.00 62 1017.7
20260906124150 51 209 0.0 0.0 0.00 0.00 0.00 59 1017.7
20260906123649 51 209 0.0 0.0 0.00 0.00 0.00 57 1017.5
20260906123145 51 209 0.0 0.0 0.00 0.00 0.00 60 1017.8
20260906122643 51 209 0.0 0.0 0.00 0.00 0.00 58 1017.7
20260906122139 51 209 0.0 0.0 0.00 0.00 0.00 58 1017.7
20260906121636 52 209 0.0 0.0 0.00 0.00 0.00 59 1017.8
20260906121132 52 209 0.0 0.0 0.00 0.00 0.00 55 1017.8
20260906120627 52 209 0.0 0.0 0.00 0.00 0.00 56 1017.7
20260906120125 52 209 1.0 1.0 0.00 0.00 0.00 56 1017.6
20260906115625 53 209 0.0 0.0 0.00 0.00 0.00 57 1017.9
20260906115121 53 209 0.0 0.0 0.00 0.00 0.00 55 1017.8
20260906114619 53 209 0.0 0.0 0.00 0.00 0.00 52 1017.7
20260906114115 53 209 0.0 0.0 0.00 0.00 0.00 58 1017.7
20260906113614 52 209 0.0 0.0 0.00 0.00 0.00 57 1017.6
20260906113109 52 209 0.0 0.0 0.00 0.00 0.00 56 1017.4
20260906112609 52 209 0.0 0.0 0.00 0.00 0.00 56 1017.6
20260906112106 52 209 0.0 0.0 0.00 0.00 0.00 57 1017.8
20260906111605 52 209 0.0 0.0 0.00 0.00 0.00 56 1017.8
20260906111100 52 209 0.0 0.0 0.00 0.00 0.00 57 1017.8
20260906110600 52 209 0.0 0.0 0.00 0.00 0.00 55 1017.7
20260906110100 52 209 0.0 0.0 0.00 0.00 0.00 58 1017.7
20260906105554 52 209 0.0 0.0 0.00 0.00 0.00 55 1017.4
20260906105051 53 209 0.0 0.0 0.00 0.00 0.00 52 1017.6
20260906104549 53 209 0.0 0.0 0.00 0.00 0.00 53 1017.7
20260906104044 53 209 1.0 1.0 0.00 0.00 0.00 54 1017.6
20260906103542 53 209 0.0 0.0 0.00 0.00 0.00 55 1017.6
20260906103038 53 209 0.0 0.0 0.00 0.00 0.00 52 1017.6
20260906102537 53 209 0.0 0.0 0.00 0.00 0.00 55 1017.4
20260906102032 53 209 1.0 1.0 0.00 0.00 0.00 55 1017.4
20260906101527 53 209 1.0 1.0 0.00 0.00 0.00 57 1017.6
20260906101022 53 209 0.0 0.0 0.00 0.00 0.00 55 1017.5
20260906100518 53 209 0.0 0.0 0.00 0.00 0.00 55 1017.1
20260906100012 53 209 0.0 0.0 0.00 0.00 0.00 56 1017.4
20260906095507 54 209 0.0 0.0 0.00 0.00 0.00 54 1017.4
20260906095002 54 209 0.0 0.0 0.00 0.00 0.00 53 1017.4
20260906094501 54 209 0.0 0.0 0.00 0.00 0.00 55 1017.0
20260906093957 53 209 0.0 1.0 0.00 0.00 0.00 56 1017.1
20260906093453 53 209 1.0 1.0 0.00 0.00 0.00 57 1017.0
20260906092948 53 209 0.0 0.0 0.00 0.00 0.00 56 1017.0
20260906092448 53 209 0.0 0.0 0.00 0.00 0.00 57 1017.1
20260906091943 53 209 0.0 0.0 0.00 0.00 0.00 55 1017.1
20260906091438 53 209 0.0 0.0 0.00 0.00 0.00 55 1017.0
20260906090935 53 209 0.0 0.0 0.00 0.00 0.00 54 1016.9
20260906090430 53 209 0.0 0.0 0.00 0.00 0.00 55 1017.0
20260906085924 53 209 0.0 1.0 0.00 0.00 0.00 57 1016.9
20260906085423 54 209 0.0 1.0 0.00 0.00 0.00 56 1016.9
20260906084922 54 209 0.0 0.0 0.00 0.00 0.00 55 1016.8
20260906084418 55 209 0.0 0.0 0.00 0.00 0.00 53 1016.8
20260906083917 55 209 0.0 0.0 0.00 0.00 0.00 53 1017.0
20260906083413 55 209 0.0 0.0 0.00 0.00 0.00 53 1016.9
20260906082911 55 209 0.0 0.0 0.00 0.00 0.00 52 1016.9
20260906082407 55 209 0.0 0.0 0.00 0.00 0.00 53 1017.0
20260906081903 55 209 0.0 0.0 0.00 0.00 0.00 53 1016.9
20260906081358 55 209 0.0 0.0 0.00 0.00 0.00 52 1017.0
20260906080854 56 209 1.0 1.0 0.00 0.00 0.00 53 1016.9
20260906080351 56 209 0.0 0.0 0.00 0.00 0.00 52 1017.1
20260906075849 56 209 0.0 0.0 0.00 0.00 0.00 52 1017.2
20260906075344 55 209 0.0 0.0 0.00 0.00 0.00 53 1016.9
20260906074840 54 209 0.0 0.0 0.00 0.00 0.00 54 1017.2
20260906074340 54 209 0.0 0.0 0.00 0.00 0.00 54 1017.2
20260906073838 54 209 0.0 0.0 0.00 0.00 0.00 55 1017.1
20260906073334 54 209 0.0 0.0 0.00 0.00 0.00 55 1017.1
20260906072830 54 209 0.0 0.0 0.00 0.00 0.00 55 1017.0
20260906072326 54 209 0.0 0.0 0.00 0.00 0.00 56 1016.9
20260906071822 55 209 0.0 0.0 0.00 0.00 0.00 56 1016.9
20260906071322 55 209 0.0 0.0 0.00 0.00 0.00 54 1017.0
20260906070818 55 209 0.0 0.0 0.00 0.00 0.00 55 1016.8
20260906070313 55 209 0.0 0.0 0.00 0.00 0.00 54 1016.9
20260906065808 55 209 0.0 0.0 0.00 0.00 0.00 54 1016.8
20260906065305 55 209 0.0 0.0 0.00 0.00 0.00 54 1016.9
20260906064759 56 209 0.0 0.0 0.00 0.00 0.00 53 1016.7
20260906064255 56 209 0.0 0.0 0.00 0.00 0.00 51 1016.9
20260906063749 56 209 0.0 0.0 0.00 0.00 0.00 51 1016.8
20260906063245 56 209 0.0 0.0 0.00 0.00 0.00 50 1016.8
20260906062740 57 209 0.0 0.0 0.00 0.00 0.00 50 1016.8
20260906062239 57 209 0.0 0.0 0.00 0.00 0.00 49 1016.8
20260906061735 57 209 0.0 0.0 0.00 0.00 0.00 51 1016.7
20260906061231 57 209 0.0 0.0 0.00 0.00 0.00 50 1016.6
20260906060726 57 209 0.0 0.0 0.00 0.00 0.00 50 1016.7
20260906060224 58 209 0.0 0.0 0.00 0.00 0.00 48 1016.8
20260906055719 58 209 0.0 0.0 0.00 0.00 0.00 47 1016.6
20260906055214 59 209 0.0 0.0 0.00 0.00 0.00 47 1016.7
20260906054709 59 209 0.0 0.0 0.00 0.00 0.00 46 1016.7
20260906054204 60 209 0.0 0.0 0.00 0.00 0.00 44 1016.7
20260906053701 61 209 0.0 0.0 0.00 0.00 0.00 43 1016.7
20260906053155 61 209 0.0 0.0 0.00 0.00 0.00 41 1016.6
20260906052651 62 209 0.0 0.0 0.00 0.00 0.00 40 1016.3
20260906052147 62 209 0.0 0.0 0.00 0.00 0.00 39 1016.7
20260906051643 62 209 0.0 0.0 0.00 0.00 0.00 39 1016.7
20260906051143 62 209 0.0 0.0 0.00 0.00 0.00 38 1016.7
20260906050639 62 209 0.0 0.0 0.00 0.00 0.00 39 1016.7
20260906050134 62 209 0.0 0.0 0.00 0.00 0.00 39 1016.6
20260906045632 62 210 0.0 0.0 0.00 0.00 0.00 39 1016.7
20260906045128 62 210 0.0 0.0 0.00 0.00 0.00 40 1016.6
20260906044624 62 210 0.0 0.0 0.00 0.00 0.00 38 1016.7
20260906044119 62 210 0.0 0.0 0.00 0.00 0.00 39 1016.6
20260906043615 62 210 0.0 0.0 0.00 0.00 0.00 40 1016.8
20260906043110 62 210 0.0 0.0 0.00 0.00 0.00 40 1016.4
20260906042609 62 210 0.0 0.0 0.00 0.00 0.00 40 1016.6
20260906042104 63 207 0.0 0.0 0.00 0.00 0.00 39 1016.6
20260906041600 64 207 0.0 0.0 0.00 0.00 0.00 39 1016.7
20260906041054 64 208 1.0 1.0 0.00 0.00 0.00 38 1016.8
20260906040550 65 206 1.0 1.0 0.00 0.00 0.00 37 1016.6
20260906040045 65 206 0.0 0.0 0.00 0.00 0.00 35 1016.2
20260906035541 66 206 0.0 0.0 0.00 0.00 0.00 35 1016.4
20260906035037 66 206 0.0 0.0 0.00 0.00 0.00 34 1016.4
20260906034536 66 206 0.0 0.0 0.00 0.00 0.00 35 1016.4
20260906034031 66 206 0.0 0.0 0.00 0.00 0.00 35 1016.3
20260906033526 66 206 0.0 0.0 0.00 0.00 0.00 34 1016.4
20260906033022 66 206 0.0 0.0 0.00 0.00 0.00 35 1016.4
20260906032519 66 206 0.0 0.0 0.00 0.00 0.00 34 1016.3
20260906032018 66 206 0.0 0.0 0.00 0.00 0.00 34 1016.3
20260906031514 67 206 0.0 0.0 0.00 0.00 0.00 34 1016.6
20260906031010 67 206 0.0 0.0 0.00 0.00 0.00 33 1016.4
20260906030509 68 206 0.0 0.0 0.00 0.00 0.00 34 1016.4
20260906030009 68 206 0.0 0.0 0.00 0.00 0.00 34 1016.8
20260906025508 68 206 1.0 1.0 0.00 0.00 0.00 35 1016.4
20260906025006 69 206 0.0 0.0 0.00 0.00 0.00 35 1016.6
20260906024501 69 206 0.0 0.0 0.00 0.00 0.00 35 1016.7
20260906023956 70 206 0.0 0.0 0.00 0.00 0.00 35 1016.3
20260906023452 70 206 0.0 1.0 0.00 0.00 0.00 34 1016.3
20260906022947 70 206 0.0 0.0 0.00 0.00 0.00 34 1016.3
20260906022442 70 206 0.0 0.0 0.00 0.00 0.00 34 1016.4
20260906021938 70 206 0.0 0.0 0.00 0.00 0.00 35 1016.4
20260906021438 71 206 0.0 0.0 0.00 0.00 0.00 35 1016.6
20260906020932 72 206 0.0 0.0 0.00 0.00 0.00 33 1016.3
20260906020427 73 206 0.0 0.0 0.00 0.00 0.00 33 1016.6
20260906015921 73 206 0.0 0.0 0.00 0.00 0.00 30 1016.4
20260906015421 74 206 0.0 0.0 0.00 0.00 0.00 30 1016.6
20260906014921 74 206 0.0 0.0 0.00 0.00 0.00 29 1016.3
20260906014420 75 206 0.0 0.0 0.00 0.00 0.00 29 1016.3
20260906013917 76 206 0.0 0.0 0.00 0.00 0.00 28 1016.4
20260906013412 77 206 0.0 0.0 0.00 0.00 0.00 26 1016.7
20260906012908 78 206 0.0 0.0 0.00 0.00 0.00 26 1016.6
20260906012402 79 206 0.0 0.0 0.00 0.00 0.00 25 1016.7
20260906011901 79 206 0.0 0.0 0.00 0.00 0.00 25 1016.8
20260906011356 80 206 0.0 0.0 0.00 0.00 0.00 24 1016.8
20260906010852 80 206 0.0 0.0 0.00 0.00 0.00 23 1016.7
20260906010348 81 206 0.0 0.0 0.00 0.00 0.00 23 1016.8
20260906005843 81 206 0.0 0.0 0.00 0.00 0.00 24 1016.7
20260906005343 81 206 0.0 0.0 0.00 0.00 0.00 23 1016.6
20260906004841 81 206 0.0 0.0 0.00 0.00 0.00 23 1016.6
20260906004336 81 206 0.0 0.0 0.00 0.00 0.00 23 1016.8
20260906003831 81 204 0.0 0.0 0.00 0.00 0.00 23 1016.7
20260906003326 81 178 1.0 1.0 0.00 0.00 0.00 23 1016.8
20260906002822 82 178 0.0 0.0 0.00 0.00 0.00 22 1016.6
20260906002321 82 178 1.0 1.0 0.00 0.00 0.00 21 1016.7
20260906001818 82 190 1.0 1.0 0.00 0.00 0.00 21 1016.6
20260906001313 82 187 2.0 3.0 0.00 0.00 0.00 21 1016.6
20260906000813 82 157 1.0 1.0 0.00 0.00 0.00 21 1016.7
20260906000307 82 208 4.0 4.0 0.00 0.00 0.00 18 1016.6
20260905235802 82 206 2.0 2.0 0.00 0.00 0.00 20 1016.6
20260905235306 82 180 2.0 2.0 0.00 0.00 0.00 20 1016.7
20260905234758 82 198 2.0 2.0 0.00 0.00 0.00 20 1016.9
20260905234253 82 200 1.0 1.0 0.00 0.00 0.00 21 1016.6
20260905233748 82 208 1.0 1.0 0.00 0.00 0.00 20 1016.7
20260905233248 83 146 1.0 1.0 0.00 0.00 0.00 20 1016.9